Lexington Weather

Lexington, Massachusetts, USA

25°F
2/26/2021 7:35am 
  • Lexington Conditions: Clear
  • Temperature: 24.8°F / -4.0°CColder 0.4°F than last hour.
  • Dew Point: 15.4°F 
  • Relative Humidity: 67%Increased 1.0% since last hour.
  • Wind: Calm, 10-min avg: Calm, gust: 1 mph
  • Barometer: 30.35 inRising 0.04  inHg/hr Rising Slowly
  • Visibility: 10 miles
  • Snow Today: 0.0 in
  •   

Regional Weather Roundup
for Boston / Norton, MA

        
000
ASUS41 KBOX 220204
RWRBOX

REGIONAL WEATHER ROUNDUP
NATIONAL WEATHER SERVICE BOSTON/NORTON MA
900 PM EST SUN FEB 21 2021

NOTE:  "FAIR" INDICATES FEW OR NO CLOUDS BELOW 12,000 FEET WITH NO 
SIGNIFICANT WEATHER AND/OR OBSTRUCTIONS TO VISIBILITY.

MAZALL-220300-
EASTERN MASSACHUSETTS
  
CITY           SKY/WX    TMP DP  RH WIND       PRES   REMARKS
BOSTON         CLEAR     28   8  43 NW5       30.46F WCI  23          
BEVERLY        CLEAR     21  11  65 CALM      30.44R                  
LAWRENCE       CLEAR     19  11  70 CALM      30.46S                  
BEDFORD        CLEAR     17   9  70 CALM      30.44S                  
BLUE HILL        N/A     23   8  52 NW7       30.41S WCI  15          
NORWOOD        CLEAR     14   8  77 CALM      30.46R                  
MARSHFIELD     CLEAR     21  18  86 SW5       30.47S WCI  15          
PLYMOUTH       CLEAR     17  14  88 CALM      30.45S                  
TAUNTON        CLEAR     18  14  84 E3        30.46R                  
NEW BEDFORD    CLEAR     21  15  78 CALM      30.46R                  
$$

MAZALL-220300-
CAPE COD AND THE ISLANDS
  
CITY           SKY/WX    TMP DP  RH WIND       PRES   REMARKS
FALMOUTH       CLEAR     18  12  79 CALM      30.47S                  
HYANNIS        CLEAR     18  12  77 CALM      30.46R                  
CHATHAM        CLEAR     22  14  71 CALM      30.48R                  
PROVINCETOWN   CLEAR     24  15  68 SW6       30.47R WCI  17          
NANTUCKET      CLEAR     22  16  78 CALM      30.48R                  
MARTHAS VNYRD  CLEAR     17  11  77 CALM      30.47R                  
$$
 
MAZALL-220300-
CENTRAL AND WESTERN MASSACHUSETTS
  
CITY           SKY/WX    TMP DP  RH WIND       PRES   REMARKS
WORCESTER      CLEAR     24   6  46 W6        30.39F WCI  17          
FITCHBURG      CLEAR     18  11  74 CALM      30.44F                  
ORANGE         CLEAR     16   9  74 CALM      30.44F                  
SPRINGFIELD    PTCLDY    16   7  69 CALM      30.44F                  
WESTFIELD      CLEAR     19   9  65 CALM      30.45R                  
NORTH ADAMS    CLEAR     11   4  73 CALM      30.43F                  
PITTSFIELD     CLEAR     14   6  70 CALM      30.38S                  
$$
 
RIZALL-220300-
RHODE ISLAND
  
CITY           SKY/WX    TMP DP  RH WIND       PRES   REMARKS
PROVIDENCE     CLEAR     24  12  60 W3        30.47S                  
NEWPORT        CLEAR     20  12  71 CALM      30.46R                  
BLOCK ISLAND   CLEAR     25  15  66 SW5       30.48R WCI  19          
SMITHFIELD     CLEAR     22   9  57 CALM      30.44R                  
WESTERLY       CLEAR     20  10  65 CALM      30.48R                  
$$
 
CTZALL-220300-
CONNECTICUT
  
CITY           SKY/WX    TMP DP  RH WIND       PRES   REMARKS
BRADLEY INTL   CLEAR     24   9  52 W3        30.46F                  
HARTFORD       CLEAR     25  13  60 S3        30.48R                  
BRIDGEPORT     CLEAR     26  11  52 CALM      30.48S                  
DANBURY        CLEAR     18  10  71 CALM      30.46S                  
GROTON         CLEAR     22  13  68 NE3       30.48S                  
NEW HAVEN      CLEAR     19  10  68 CALM      30.48R                  
CHESTER        FAIR      23   5  46 CALM      30.46S                  
MERIDEN        CLEAR     19   9  65 CALM      30.48R                  
WILLIMANTIC    CLEAR     19  10  68 CALM      30.47S                  
OXFORD         CLEAR     18   7  62 CALM      30.44S                  
$$

MEZ002-015-021-024-NHZ003-005-008-011-012-014-VTZ005-008-220300-
NORTHERN NEW ENGLAND
  
CITY           SKY/WX    TMP DP  RH WIND       PRES   REMARKS
PORTLAND ME    CLEAR     25  10  53 W5        30.42S WCI  19          
BANGOR ME      CLEAR     24   8  50 W3        30.38R                  
CONCORD NH     CLEAR     15   8  73 CALM      30.42F                  
MANCHESTER NH  CLEAR     20   9  62 CALM      30.42R                  
NASHUA NH      CLEAR     18   9  68 CALM      30.45R                  
PORTSMOUTH NH  CLEAR     24  12  60 SW5       30.42S WCI  18          
JAFFREY NH     CLEAR      8   3  80 S3        30.38F                  
KEENE NH       CLEAR     12   7  80 CALM      30.44R                  
BURLINGTON VT  CLEAR     18   7  62 CALM      30.40F                  
MT. WASHINGTON CLEAR      5  -4  66 W32         N/A  WCI -20          
$$

NYZ052-076-220300-
EASTERN NEW YORK
  
CITY           SKY/WX    TMP DP  RH WIND       PRES   REMARKS
ALBANY         CLEAR     17   9  70 CALM      30.44F                  
NEW YORK CITY  PTCLDY    34  15  46 SW7       30.48F WCI  28          
$$
 
ANZALL-220300-
MARINE OBSERVATIONS
  
STATION/POSITION TIME  TEMP    WIND        PRES    VSBY  WAVE
                       AIR SEA DIR/SP/G                  HT/PER
                 (UTC) (F)     (DEG/KT/KT) (MB)    (MI)  (FT/S)
BOSTON BUOY      0140   33 39  310/  6/  8 1031.8R
BUZZARDS BAY     0100          220/  9/  9 1032.8R
NANTUCKET SOUND  0140      36  220/ 10/ 12   N/A
MASS BAY-STELLWA 0104   33     310/ 10/ 12 1030.4R  1 7/8  4/11
ISLE OF SHOALS   0100   31     310/ 13/ 15 1030.5R
S OF BLOCK IS    0126      38                N/A           3/11
$$

......................KEY.........................
  SKY/WX - SKY CONDITION/PRESENT WEATHER
  TMP    - TEMPERATURE IN FAHRENHEIT
  DWPT   - DEWPOINT IN FAHRENHEIT
  RH     - RELATIVE HUMIDITY IN PERCENT
  WIND   - DIRECTION AND SPEED IN MPH
  PRES   - MEAN SEA LEVEL PRESSURE IN INCHES OF HG
  WCI    - WIND CHILL INDEX
  VSB    - VISIBILITY IN MILES
  HX     - HEAT INDEX
  TC     - TEMPERATURE IN CELSIUS
  VRB    - VARIABLE WIND DIRECTION
  N/A    - NOT AVAILABLE
  
      

Other recent Regional Weather Roundups

Fri Feb 26, 7:04am

Fri Feb 26, 6:04am

Fri Feb 26, 5:04am

Fri Feb 26, 4:04am

Fri Feb 26, 3:04am

Fri Feb 26, 2:04am

Fri Feb 26, 1:04am

Fri Feb 26, 12:04am

Thu Feb 25, 11:04pm

Thu Feb 25, 10:04pm

Thu Feb 25, 9:04pm

Thu Feb 25, 8:05pm

Thu Feb 25, 7:05pm

Thu Feb 25, 6:04pm

Thu Feb 25, 5:04pm

Thu Feb 25, 4:05pm

Thu Feb 25, 3:05pm

Thu Feb 25, 2:04pm

Thu Feb 25, 1:04pm

Thu Feb 25, 12:05pm

Thu Feb 25, 11:04am

Thu Feb 25, 10:04am

Thu Feb 25, 9:04am

Thu Feb 25, 8:04am

Thu Feb 25, 7:04am

Thu Feb 25, 6:04am

Thu Feb 25, 5:04am

Thu Feb 25, 4:04am

Thu Feb 25, 3:04am

Thu Feb 25, 2:04am

Thu Feb 25, 1:04am

Thu Feb 25, 12:04am

Wed Feb 24, 11:04pm

Wed Feb 24, 10:05pm

Wed Feb 24, 9:04pm

Wed Feb 24, 8:04pm

Wed Feb 24, 7:04pm

Wed Feb 24, 6:04pm

Wed Feb 24, 5:04pm

Wed Feb 24, 4:04pm

Wed Feb 24, 3:04pm

Wed Feb 24, 2:05pm

Wed Feb 24, 1:05pm

Wed Feb 24, 12:05pm

Wed Feb 24, 11:04am

Wed Feb 24, 10:04am

Wed Feb 24, 9:04am

Wed Feb 24, 8:04am

Wed Feb 24, 7:04am

Wed Feb 24, 6:04am

Wed Feb 24, 5:04am

Wed Feb 24, 4:04am

Wed Feb 24, 3:04am

Wed Feb 24, 2:04am

Wed Feb 24, 1:04am

Wed Feb 24, 12:04am

Tue Feb 23, 11:04pm

Tue Feb 23, 10:04pm

Tue Feb 23, 9:04pm

Tue Feb 23, 8:05pm

Tue Feb 23, 7:04pm

Tue Feb 23, 6:04pm

Tue Feb 23, 5:04pm

Tue Feb 23, 4:05pm

Tue Feb 23, 3:04pm

Tue Feb 23, 2:04pm

Tue Feb 23, 1:04pm

Tue Feb 23, 12:04pm

Tue Feb 23, 11:04am

Tue Feb 23, 10:04am

Tue Feb 23, 9:04am

Tue Feb 23, 7:04am

Tue Feb 23, 6:04am

Tue Feb 23, 5:04am

Tue Feb 23, 4:04am

Tue Feb 23, 3:04am

Tue Feb 23, 2:04am

Tue Feb 23, 1:04am

Tue Feb 23, 12:04am

Mon Feb 22, 11:04pm

Mon Feb 22, 10:04pm

Mon Feb 22, 9:04pm

Mon Feb 22, 8:04pm

Mon Feb 22, 7:04pm

Mon Feb 22, 6:04pm

Mon Feb 22, 5:04pm

Mon Feb 22, 4:05pm

Mon Feb 22, 3:04pm

Mon Feb 22, 2:05pm

Mon Feb 22, 1:04pm

Mon Feb 22, 12:05pm

Mon Feb 22, 11:04am

Mon Feb 22, 10:04am

Mon Feb 22, 9:05am

Mon Feb 22, 8:04am

Mon Feb 22, 7:04am

Mon Feb 22, 6:04am

Mon Feb 22, 5:04am

Mon Feb 22, 4:04am

Mon Feb 22, 3:04am

Mon Feb 22, 2:04am

Mon Feb 22, 1:04am

Mon Feb 22, 12:04am

Sun Feb 21, 11:04pm

Sun Feb 21, 10:05pm

Sun Feb 21, 8:04pm

Sun Feb 21, 7:04pm

Sun Feb 21, 6:04pm

Sun Feb 21, 5:04pm

Sun Feb 21, 4:05pm

Sun Feb 21, 3:04pm

Sun Feb 21, 2:04pm

Sun Feb 21, 1:05pm

Sun Feb 21, 12:05pm

Sun Feb 21, 11:04am

Sun Feb 21, 10:05am

Sun Feb 21, 9:04am

Sun Feb 21, 8:04am

Sun Feb 21, 7:04am

Sun Feb 21, 6:04am

Sun Feb 21, 5:04am

Sun Feb 21, 4:04am

Sun Feb 21, 3:04am

Sun Feb 21, 2:04am

Sun Feb 21, 1:04am

Sun Feb 21, 12:04am

Sat Feb 20, 11:04pm

Sat Feb 20, 10:04pm

Sat Feb 20, 9:04pm

Sat Feb 20, 8:04pm

Sat Feb 20, 7:04pm

Sat Feb 20, 6:04pm

Sat Feb 20, 5:04pm

Sat Feb 20, 4:05pm

Sat Feb 20, 3:04pm

Sat Feb 20, 2:04pm

Sat Feb 20, 1:05pm

Sat Feb 20, 12:05pm

Sat Feb 20, 11:04am

Sat Feb 20, 10:05am

Sat Feb 20, 9:04am

Sat Feb 20, 8:04am

Sat Feb 20, 7:04am

Sat Feb 20, 6:04am

Sat Feb 20, 5:04am

Sat Feb 20, 4:04am

Sat Feb 20, 3:04am

Sat Feb 20, 2:04am

Sat Feb 20, 1:04am

Sat Feb 20, 12:04am

Fri Feb 19, 11:04pm

Fri Feb 19, 10:05pm

Fri Feb 19, 9:04pm

Fri Feb 19, 8:04pm

Fri Feb 19, 7:04pm

Fri Feb 19, 6:04pm

Fri Feb 19, 5:04pm

Fri Feb 19, 4:05pm

Fri Feb 19, 3:04pm

Fri Feb 19, 2:04pm

Fri Feb 19, 1:05pm

Fri Feb 19, 12:05pm

Fri Feb 19, 11:04am

Fri Feb 19, 10:04am

Fri Feb 19, 9:04am

Fri Feb 19, 8:04am

Meta data:

ID: c52ce84f-1a6e-432c-a15b-dbe37fd9883a
Link: https://api.weather.gov/products/c52ce84f-1a6e-432c-a15b-dbe37fd9883a